DW9936 Weather Reports


Display with metric or nautical units.
time (UTC)temp
F
wind
direction
speed
MPH
gust
MPH
rain 1hr
in
rain 24hr
in
rain mn
in
humidity
%
barometer
mb
20260902200025 70 355 0.0 3.0 0.00 0.00 0.00 53 1019.1
20260902194536 71 308 0.0 1.0 0.00 0.00 0.00 52 1019.2
20260902193022 72 307 0.0 2.0 0.00 0.00 0.00 50 1019.1
20260902191521 72 304 0.0 1.0 0.00 0.00 0.00 50 1019.0
20260902190020 73 295 0.0 1.0 0.00 0.00 0.00 49 1018.9
20260902184526 74 295 0.0 1.0 0.00 0.00 0.00 47 1018.6
20260902183020 74 327 0.0 3.0 0.00 0.00 0.00 47 1018.4
20260902181518 75 333 0.0 2.0 0.00 0.00 0.00 46 1018.2
20260902180020 75 325 0.0 3.0 0.00 0.00 0.00 44 1017.9
20260902174518 76 355 0.0 2.0 0.00 0.00 0.00 43 1017.8
20260902173025 77 355 0.0 2.0 0.00 0.00 0.00 40 1017.6
20260902171516 78 35 0.0 2.0 0.00 0.00 0.00 38 1017.5
20260902170019 79 97 0.0 0.0 0.00 0.00 0.00 42 1017.4
20260902164515 80 98 0.0 0.0 0.00 0.00 0.00 41 1017.4
20260902163014 81 98 0.0 1.0 0.00 0.00 0.00 40 1017.4
20260902161514 81 103 0.0 2.0 0.00 0.00 0.00 40 1017.4
20260902160015 82 124 0.0 1.0 0.00 0.00 0.00 39 1017.5
20260902154512 82 331 0.0 1.0 0.00 0.00 0.00 38 1017.5
20260902153012 82 312 0.0 2.0 0.00 0.00 0.00 39 1017.6
20260902151515 82 102 0.0 1.0 0.00 0.00 0.00 41 1017.6
20260902150010 82 103 0.0 1.0 0.00 0.00 0.00 39 1017.8
20260902144509 82 105 0.0 2.0 0.00 0.00 0.00 38 1017.7
20260902143010 83 115 0.0 2.0 0.00 0.00 0.00 37 1017.8
20260902141507 83 87 0.0 2.0 0.00 0.00 0.00 37 1017.9
20260902140012 84 92 0.0 2.0 0.00 0.00 0.00 38 1017.9
20260902134510 84 246 0.0 3.0 0.00 0.00 0.00 37 1017.9
20260902133005 84 273 0.0 2.0 0.00 0.00 0.00 36 1018.2
20260902131502 84 272 0.0 3.0 0.00 0.00 0.00 38 1018.3
20260902130001 84 61 0.0 6.0 0.00 0.00 0.00 37 1018.5
20260902124603 84 267 0.0 3.0 0.00 0.00 0.00 38 1018.6
20260902123100 84 113 1.0 4.0 0.00 0.00 0.00 38 1018.8
20260902121557 85 204 0.0 2.0 0.00 0.00 0.00 38 1019.0
20260902120053 83 220 1.0 5.0 0.00 0.00 0.00 39 1019.1
20260902114552 84 76 0.0 2.0 0.00 0.00 0.00 40 1019.3
20260902113051 83 62 0.0 3.0 0.00 0.00 0.00 40 1019.5
20260902111547 83 111 0.0 5.0 0.00 0.00 0.00 40 1019.6
20260902110043 82 247 0.0 5.0 0.00 0.00 0.00 42 1019.8
20260902104604 82 72 1.0 5.0 0.00 0.00 0.00 42 1020.0
20260902103040 81 112 0.0 4.0 0.00 0.00 0.00 42 1020.0
20260902101537 82 110 0.0 3.0 0.00 0.00 0.00 41 1020.3
20260902100038 82 146 0.0 2.0 0.00 0.00 0.00 40 1020.5
20260902094531 81 181 0.0 3.0 0.00 0.00 0.00 44 1020.6
20260902093030 79 185 0.0 4.0 0.00 0.00 0.00 47 1020.7
20260902091522 78 143 0.0 3.0 0.00 0.00 0.00 47 1020.8
20260902090020 77 111 0.0 6.0 0.00 0.00 0.00 49 1021.0
20260902084516 76 156 0.0 4.0 0.00 0.00 0.00 52 1021.2
20260902083013 75 120 0.0 3.0 0.00 0.00 0.00 55 1021.2
20260902081507 73 159 0.0 3.0 0.00 0.00 0.00 57 1021.2
20260902080013 72 317 0.0 2.0 0.00 0.00 0.00 58 1021.3
20260902074502 71 209 0.0 2.0 0.00 0.00 0.00 61 1021.3
20260902073057 68 206 0.0 0.0 0.00 0.00 0.00 68 1021.3
20260902071601 65 209 0.0 0.0 0.00 0.00 0.00 70 1021.4
20260902070049 64 209 0.0 0.0 0.00 0.00 0.00 71 1021.3
20260902064549 64 209 0.0 0.0 0.00 0.00 0.00 71 1021.2
20260902063108 63 209 0.0 0.0 0.00 0.00 0.00 74 1021.2
20260902061552 62 209 0.0 0.0 0.00 0.00 0.00 76 1021.1
20260902060104 61 205 0.0 0.0 0.00 0.00 0.00 81 1021.1
20260902054545 60 204 0.0 0.0 0.00 0.00 0.00 82 1021.0
20260902053044 59 204 0.0 0.0 0.00 0.00 0.00 83 1021.0
20260902051541 58 204 0.0 0.0 0.00 0.00 0.00 82 1020.9
20260902050038 59 204 0.0 0.0 0.00 0.00 0.00 82 1020.9
20260902044543 59 204 0.0 0.0 0.00 0.00 0.00 81 1020.9
20260902043036 59 204 0.0 0.0 0.00 0.00 0.00 80 1020.8
20260902041538 60 204 0.0 0.0 0.00 0.00 0.00 79 1020.8
20260902040035 60 204 0.0 0.0 0.00 0.00 0.00 79 1020.7
20260902034532 60 204 0.0 0.0 0.00 0.00 0.00 79 1020.6
20260902033031 59 204 0.0 0.0 0.00 0.00 0.00 78 1020.7
20260902031538 60 204 0.0 0.0 0.00 0.00 0.00 77 1020.7
20260902030028 60 204 0.0 0.0 0.00 0.00 0.00 75 1020.6
20260902024527 60 204 0.0 0.0 0.00 0.00 0.00 75 1020.7
20260902023026 61 204 0.0 0.0 0.00 0.00 0.00 73 1020.8
20260902021536 61 204 0.0 2.0 0.00 0.00 0.00 72 1020.7
20260902020032 60 132 0.0 1.0 0.00 0.00 0.00 75 1020.7
20260902014543 60 132 0.0 0.0 0.00 0.00 0.00 74 1020.7
20260902013020 61 133 0.0 0.0 0.00 0.00 0.00 73 1020.9
20260902011517 62 133 0.0 0.0 0.00 0.00 0.00 72 1020.9
20260902010020 62 133 0.0 0.0 0.00 0.00 0.00 70 1020.9
20260902004518 62 133 0.0 0.0 0.00 0.00 0.00 70 1020.9
20260902003014 62 133 0.0 0.0 0.00 0.00 0.00 69 1020.9
20260902001512 63 133 0.0 0.0 0.00 0.00 0.00 69 1020.9
20260902000011 63 133 0.0 0.0 0.00 0.00 0.00 69 1020.9
20260901234522 63 133 0.0 0.0 0.00 0.00 0.00 69 1021.0
20260901233008 63 133 0.0 0.0 0.00 0.00 0.00 68 1021.0
20260901231506 63 133 0.0 0.0 0.00 0.00 0.00 67 1021.1
20260901230010 64 133 0.0 0.0 0.00 0.00 0.00 67 1021.2
20260901224502 64 133 0.0 0.0 0.00 0.00 0.00 66 1021.2
20260901223002 64 133 0.0 0.0 0.00 0.00 0.00 64 1021.1
20260901221630 64 133 0.0 0.0 0.00 0.00 0.00 64 1021.1
20260901220100 64 133 0.0 1.0 0.00 0.00 0.00 64 1021.1
20260901214557 64 133 0.0 0.0 0.00 0.00 0.00 64 1020.9
20260901213104 64 133 0.0 0.0 0.00 0.00 0.00 65 1020.9
20260901211555 64 133 0.0 2.0 0.00 0.00 0.00 65 1020.9
20260901210054 64 128 0.0 0.0 0.00 0.00 0.00 64 1020.8
20260901204556 65 128 0.0 0.0 0.00 0.00 0.00 62 1020.8
20260901203101 65 304 0.0 2.0 0.00 0.00 0.00 61 1020.6
20260901201551 65 296 0.0 1.0 0.00 0.00 0.00 62 1020.6